Theta_e
331 329 328 327 325 326 330 339 339 338 338 335 333 331 332 334 334 332 332 334 333 330 331 333 333 331 329 327 329 331 334 336 334 332 331 335 338 338 339 339 337 332 332
329 329 328 328 327 325 325 329 338 341 341 337 334 333 332 333 335 334 333 333 333 331 331 332 333 332 330 327 327 330 334 336 334 332 331 333 337 338 339 340 339 335 335
329 328 328 328 328 327 326 327 335 340 341 338 336 335 333 333 335 336 336 336 336 334 333 332 333 333 332 329 327 329 333 337 339 341 339 337 332 338 338 338 334 334 332
330 329 328 328 329 329 328 328 336 340 341 340 338 336 335 334 334 335 336 336 337 336 335 334 333 334 333 332 329 327 332 334 339 340 336 340 333 332 338 337 334 334 333
334 330 328 328 329 330 329 329 333 338 339 340 339 338 336 337 336 335 336 337 343 337 336 336 336 334 334 334 332 328 328 332 334 338 341 342 337 332 330 332 333 333 335
346 338 330 329 329 330 330 329 331 334 337 338 339 339 338 338 337 336 337 337 338 337 336 339 342 337 335 334 334 332 330 330 330 331 336 341 339 339 335 332 333 334 338
348 345 335 331 331 331 331 331 331 333 336 338 339 340 340 339 337 337 337 337 337 337 337 338 340 336 334 334 333 333 332 331 330 331 337 341 338 338 336 334 334 334 334
347 346 338 335 333 332 332 332 332 331 333 335 338 338 337 337 336 336 336 337 338 336 336 337 337 337 334 333 333 332 331 330 328 329 335 339 340 339 335 332 334 335 334
344 341 339 339 337 335 334 334 334 333 333 333 334 334 335 336 336 337 337 338 337 337 336 337 337 337 336 337 336 334 332 331 329 327 329 338 339 337 335 331 329 332 335
343 341 341 341 339 338 337 336 335 335 336 337 337 336 335 335 336 336 336 336 335 336 336 337 337 337 338 339 338 336 335 335 334 333 335 338 338 336 334 333 330 328 334
343 341 340 339 339 339 339 339 338 338 337 338 338 338 339 340 340 341 340 340 339 339 338 338 337 337 336 336 336 336 337 337 336 337 339 339 340 336 336 337 333 331 330
345 344 342 340 340 338 337 336 336 336 338 339 339 338 339 340 341 341 340 339 340 339 339 339 340 338 338 338 339 341 340 340 339 339 339 338 338 339 338 338 338 336 335
344 343 342 342 341 341 338 338 339 339 338 338 337 338 338 338 338 339 339 339 338 337 337 338 338 338 340 340 340 339 339 338 338 337 337 338 336 337 335 334 334 335 336
343 343 342 341 341 341 340 339 338 338 336 334 334 335 333 333 334 335 336 337 336 335 336 337 336 338 339 338 337 336 336 336 334 334 334 332 330 329 329 328 327 328 332
341 341 342 342 342 337 339 338 336 335 334 332 331 330 332 329 328 330 331 333 333 333 333 333 333 332 332 333 334 334 334 333 332 330 330 327 327 327 327 328 330 328 331
338 338 337 337 335 330 329 328 329 329 328 327 326 329 328 328 327 327 327 327 326 326 327 327 328 329 330 330 330 329 328 329 326 325 325 325 326 326 326 326 326 326 326
334 333 331 330 330 327 326 326 325 325 325 324 322 322 327 326 326 326 325 325 320 321 322 321 320 320 321 322 322 321 320 319 320 320 321 325 322 321 320 319 319 319 318
330 328 327 327 326 326 325 324 323 321 320 319 317 319 321 322 324 320 322 321 320 318 317 316 316 317 317 317 317 317 317 317 317 320 324 322 320 319 317 316 316 315 314
328 326 326 326 325 324 323 321 320 319 318 316 315 315 317 318 317 316 318 318 316 314 315 315 314 314 314 315 315 312 313 316 320 323 320 319 316 315 313 314 313 312 312
327 326 325 325 324 322 320 319 318 316 315 314 313 312 312 314 313 314 315 313 312 311 311 311 312 311 312 311 308 309 314 320 321 320 318 316 314 312 311 312 310 309 308
326 325 324 323 323 321 318 317 315 314 313 312 312 311 310 310 310 310 309 309 310 310 309 308 310 310 310 308 312 312 315 320 320 318 316 313 312 311 310 309 307 306 303
324 324 323 322 322 320 318 316 315 313 312 311 310 309 309 308 308 308 307 308 308 308 307 308 309 310 309 308 309 311 316 315 316 313 312 310 308 308 308 306 305 304 302
323 323 322 322 321 320 317 316 314 313 311 309 308 307 307 306 307 307 307 308 309 308 307 308 308 309 309 308 308 310 309 313 311 307 306 305 306 307 306 304 301 298 296
322 321 321 321 320 319 317 315 315 312 309 307 307 306 305 306 306 307 307 307 307 306 305 307 306 307 308 307 307 307 307 308 306 308 303 303 303 302 301 300 299 297 295
321 321 321 320 320 319 317 316 314 311 309 308 306 305 305 305 306 306 306 306 306 305 305 305 304 305 305 305 305 305 304 304 303 302 302 300 300 299 298 297 294 292 292
320 320 320 320 319 319 317 316 314 312 310 307 306 305 304 304 305 305 305 305 304 304 303 303 303 303 302 302 302 302 301 299 298 299 297 298 298 296 296 295 295 293 291
Wind_Speed
27 26 21 18 17 15 15 15 15 15 13 14 12 13 13 13 13 13 13 12 12 11 10 10 9 10 11 12 12 13 14 14 15 15 16 17 18 17 16 14 10 14 14
33 26 22 20 18 15 14 14 15 15 14 14 13 13 13 12 11 11 10 9 8 8 8 8 8 8 9 10 11 12 13 14 14 14 15 14 13 12 9 9 10 12 13
33 27 23 21 18 16 14 14 15 15 13 14 13 13 12 12 11 9 9 8 7 6 6 7 7 6 7 8 9 11 11 13 13 13 13 12 8 9 12 13 10 10 10
30 26 23 20 18 16 14 15 15 15 14 14 13 14 13 12 11 9 9 8 6 5 5 6 5 5 5 5 6 8 9 9 9 9 7 8 7 9 7 8 8 8 9
25 25 23 20 18 16 15 14 14 14 14 13 13 14 13 12 10 10 9 9 8 6 5 4 4 3 2 2 3 4 5 4 4 1 1 5 8 8 6 6 7 7 8
23 22 23 20 18 17 16 14 13 13 13 13 13 14 12 11 10 9 10 9 8 7 6 5 3 3 2 1 0 1 1 2 1 1 3 7 10 6 4 5 7 7 7
24 20 21 20 18 17 16 15 14 13 13 13 13 13 11 10 10 10 10 9 8 8 7 6 4 3 2 2 2 3 3 5 5 5 8 14 10 6 4 5 5 5 5
21 19 21 19 18 17 16 16 15 14 13 13 12 11 10 10 10 9 9 9 9 9 8 7 6 5 4 4 4 4 5 6 7 6 6 1 14 9 3 4 4 6 6
14 18 21 19 18 18 17 16 15 15 14 13 12 11 10 9 9 9 9 9 9 9 9 8 8 7 7 6 6 6 7 7 8 8 8 6 10 7 4 2 4 5 7
13 16 19 18 17 17 16 16 15 14 14 13 12 11 11 9 9 8 8 9 10 10 10 10 10 10 10 9 9 10 10 9 10 10 7 3 5 8 6 4 4 5 6
17 17 17 18 17 16 16 15 13 12 10 10 8 7 8 7 7 8 9 9 10 9 9 9 10 12 12 12 11 10 11 11 11 10 10 7 8 6 3 1 3 4 7
22 21 18 19 18 15 16 15 13 12 12 11 8 8 8 7 8 10 11 11 10 10 11 10 10 9 8 8 7 7 9 8 8 11 12 10 8 5 4 3 4 6 7
24 23 22 22 18 16 16 18 15 14 12 11 10 9 8 10 10 10 8 8 8 7 7 5 6 6 4 4 3 2 3 2 5 6 5 2 4 3 2 1 1 4 6
27 25 24 23 22 22 17 16 17 17 14 12 11 9 8 9 9 9 8 10 10 9 9 7 4 4 7 4 4 3 1 4 5 8 8 7 6 3 4 4 4 3 5
32 29 28 26 24 19 21 19 21 20 18 16 13 10 9 7 6 6 9 9 9 9 8 7 7 3 1 1 1 4 2 2 2 4 7 6 5 5 3 5 10 8 12
34 33 27 25 25 22 22 22 21 19 16 13 12 15 13 10 7 4 4 5 6 5 5 4 4 5 5 3 1 1 1 4 3 2 4 8 10 9 8 8 8 17 16
37 34 30 27 25 22 22 21 20 19 17 15 12 13 15 13 13 9 8 11 9 5 4 4 3 4 3 2 3 4 4 2 5 3 5 12 14 13 12 13 13 14 19
40 36 30 25 21 19 19 19 18 17 16 14 13 15 15 14 15 8 12 11 8 6 5 4 3 6 4 3 4 3 3 4 5 6 14 15 12 11 15 14 15 15 16
40 35 29 25 21 17 16 17 17 18 16 13 12 13 14 14 13 13 14 11 9 6 7 7 3 3 2 3 5 4 5 6 7 14 15 14 11 11 12 12 11 10 11
41 37 30 24 19 16 16 16 17 16 15 13 12 12 13 15 13 13 10 11 8 8 6 6 5 3 2 2 3 8 5 10 18 17 14 11 10 14 12 11 12 12 11
43 40 34 29 23 21 17 17 16 15 16 15 13 11 13 15 13 11 12 12 10 9 5 5 7 4 3 5 2 6 9 12 16 17 15 14 15 13 15 17 14 13 14
42 43 39 34 31 26 22 16 16 16 14 14 11 10 11 14 15 13 14 13 10 9 8 8 8 7 6 8 3 4 2 8 14 19 18 15 15 15 16 16 14 11 11
37 44 43 39 36 30 24 20 18 18 16 13 11 11 9 11 14 14 14 13 13 12 11 10 9 11 9 9 10 4 2 3 11 14 18 14 13 16 15 14 14 14 14
33 32 34 35 31 26 22 23 28 29 22 14 15 12 10 10 12 13 12 15 13 12 13 13 11 10 13 10 11 11 9 4 3 3 16 16 15 15 13 12 11 12 14
29 31 31 29 27 24 24 22 27 24 22 17 15 15 13 11 11 12 14 15 15 14 13 13 12 13 14 13 11 8 12 10 9 3 3 5 17 12 12 13 14 17 17
24 25 23 23 26 24 25 18 26 22 17 20 22 21 17 14 12 13 13 13 14 14 14 15 14 14 14 13 11 11 11 5 4 5 3 2 6 9 11 10 12 15 16
Wind_Direction
145 145 144 135 128 127 135 142 145 144 142 138 135 130 127 123 121 121 118 112 106 100 92 84 78 75 72 71 67 70 76 80 82 87 92 99 103 104 106 103 88 99 102
149 149 148 143 139 134 135 143 149 148 149 147 146 143 140 135 133 132 130 124 114 107 97 87 83 76 72 72 71 72 76 81 85 87 90 100 107 102 94 116 124 107 102
149 152 152 149 145 141 136 138 147 151 153 154 153 153 150 145 144 143 142 137 130 122 110 100 92 83 71 68 73 79 81 88 96 98 105 91 110 110 95 115 111 108 105
147 153 153 150 150 146 140 139 145 150 154 158 160 161 159 155 157 158 159 152 145 139 128 116 104 92 76 66 69 82 89 98 113 116 94 105 120 120 122 124 117 119 114
148 154 154 156 155 151 147 145 148 153 158 163 166 169 165 165 167 168 171 165 157 158 149 140 126 109 90 73 67 77 85 91 117 128 74 214 183 119 128 140 132 134 130
150 156 157 158 158 157 153 151 154 157 161 164 169 172 171 173 174 178 178 179 175 171 168 168 149 153 162 157 347 20 336 349 5 2 354 199 181 132 130 150 154 150 162
149 154 162 162 162 161 158 158 158 159 162 166 171 176 175 180 184 186 187 189 188 183 184 189 198 219 210 229 245 278 292 307 311 345 23 191 190 189 164 166 166 171 172
149 157 164 162 164 165 165 167 167 165 165 169 175 180 181 187 190 193 198 202 204 199 201 205 218 227 242 252 257 264 281 291 296 301 351 312 217 192 170 177 182 189 199
153 160 161 159 167 170 172 175 174 173 173 175 178 181 185 193 200 203 210 217 221 219 214 218 226 237 243 246 262 268 276 288 294 296 323 14 199 214 217 231 214 213 216
160 160 164 165 166 170 172 178 179 182 183 181 187 196 196 202 211 216 230 233 236 239 235 233 234 239 246 253 261 274 279 282 287 290 292 288 205 206 202 206 233 236 242
159 164 162 163 165 169 172 172 175 172 174 176 180 185 174 190 210 206 224 235 239 242 253 255 248 239 243 252 262 271 278 282 280 273 280 276 278 210 192 254 260 258 258
163 171 169 169 167 170 176 171 168 164 159 159 156 161 170 187 200 214 220 228 235 239 245 250 257 265 259 252 250 265 277 285 279 291 293 280 235 208 245 283 287 277 277
176 176 182 177 177 177 164 163 162 167 167 169 185 188 200 213 216 223 216 215 220 228 241 233 235 228 236 251 248 236 338 326 349 331 312 122 233 229 159 151 296 288 274
178 182 184 183 179 172 172 164 165 170 171 177 188 191 211 230 230 228 227 216 205 195 190 192 148 211 199 156 149 169 335 53 84 61 84 60 64 27 32 12 357 336 296
178 184 184 180 179 176 172 171 160 162 165 163 178 185 183 206 218 228 227 231 227 222 218 215 215 204 213 203 267 216 240 278 44 46 77 41 45 56 67 54 50 27 28
176 177 179 182 180 174 177 173 170 169 168 179 181 180 172 188 190 180 210 183 150 167 172 166 214 224 212 211 138 137 281 285 322 61 58 65 76 75 60 56 49 54 51
173 170 173 180 186 180 177 175 174 177 189 194 195 185 186 175 176 174 176 164 145 179 197 175 193 187 175 190 151 149 140 87 110 86 84 101 89 76 61 57 53 53 53
168 168 168 176 179 181 182 185 182 180 189 192 188 182 184 186 182 163 183 179 188 203 203 176 182 189 162 156 158 142 167 129 83 110 117 108 92 73 62 53 54 38 35
168 165 163 167 174 177 177 174 171 170 179 184 181 179 177 174 168 178 190 190 179 191 209 198 146 188 153 197 193 154 143 147 130 127 112 98 75 55 57 61 46 36 23
169 167 162 165 170 169 172 171 169 170 170 178 184 177 178 171 169 187 188 162 157 173 180 180 156 132 125 287 255 191 136 119 134 126 115 98 75 62 55 72 57 57 35
163 161 161 159 169 174 172 166 172 171 169 172 179 186 179 173 165 180 168 154 165 173 153 153 153 131 50 358 121 116 133 120 129 123 112 92 77 75 89 94 78 51 39
158 160 163 169 173 179 184 184 187 185 181 184 192 190 188 178 165 161 159 157 166 169 144 126 142 118 84 47 94 95 93 93 97 105 107 101 95 100 109 96 88 66 37
155 163 169 174 176 178 182 179 189 187 180 170 183 187 195 181 176 172 172 160 154 159 143 130 127 121 128 81 62 120 123 166 108 81 93 89 96 102 102 90 81 63 46
162 158 160 169 173 177 179 188 189 178 170 184 192 192 185 188 181 171 163 162 150 148 137 139 132 113 134 124 99 74 79 120 127 148 82 87 91 94 91 81 63 44 31
143 149 160 167 175 181 184 195 184 181 189 195 192 184 187 189 185 173 168 167 162 156 147 142 131 121 119 116 112 112 99 82 72 109 139 87 90 84 74 65 60 46 32
136 142 151 169 181 188 190 195 189 187 189 180 179 180 185 182 175 170 166 172 165 164 155 150 145 132 120 117 118 104 98 95 65 82 95 34 106 79 76 64 42 28 13